Flag for U.S.A. Weather past 2 weeks in Angels Camp, California, U.S.A.

Now
73 °F

Sunny.


Feels Like: 77 °F
Forecast: 52 / 84 °F
Wind: 17 mph from Northwest

Location: Modesto City-County-Sham Field

Current Time: Sep 2, 2015 at 8:24:44 PM

Latest Report: Sep 2, 2015 at 7:53 PM


Visibility: 10 mi

Pressure: 29.82 "Hg

Humidity: 51%

Dew point: 54 °F

Location of Angels CampLocation

Historic Weather in Angels Camp — Graph

°F

Angels Camp temperature yesterday

Maximum temperature yesterday: 94 °F (at 3:53 PM)
Minimum temperature yesterday: 64 °F (at 5:53 AM)
Average temperature yesterday: 78 °F

Past Weeks' High & Low Weather Summary

 TemperatureHumidityPressure
High104 °F (Aug 28, 3:53 PM)78% (Aug 20, 5:53 AM)30.01 "Hg (Aug 20, 5:53 AM)
Low61 °F (Aug 22, 6:53 AM)13% (Aug 24, 3:53 PM)29.75 "Hg (Aug 20, 6:53 PM)
Average79 °F43%29.88 "Hg
* Reported Aug 18 6:53 PM — Sep 2 6:53 PM, Angels Camp, Weather by CustomWeather, © 2015

Note: Actual official high and low records may vary slightly from our data, if they occured in-between our weather recording intervals... More about our weather records

Advertising

Angels Camp weather history for previous 24 hours

 ConditionsComfort  
Time TempWeatherWind HumidityBarometerVisibility
6:53 PM
Wed, Sep 2
78 °FSunny.20 mph42%29.81 "Hg10 mi
5:53 PM82 °FSunny.20 mph35%29.81 "Hg10 mi
4:53 PM86 °FSunny.16 mph25%29.82 "Hg10 mi
3:53 PM88 °FSunny.14 mph24%29.82 "Hg10 mi
2:53 PM87 °FSunny.6 mph26%29.84 "Hg10 mi
1:53 PM85 °FSunny.9 mph30%29.86 "Hg10 mi
12:53 PM84 °FSunny.N/A30%29.88 "Hg10 mi
11:53 AM81 °FSunny.N/A33%29.89 "Hg10 mi
10:53 AM77 °FSunny.N/A39%29.90 "Hg10 mi
9:53 AM72 °FSunny.8 mph52%29.89 "Hg10 mi
8:53 AM69 °FSunny.6 mph57%29.89 "Hg10 mi
7:53 AM65 °FSunny.6 mph66%29.89 "Hg10 mi
6:53 AM62 °FClear.3 mph73%29.88 "Hg10 mi
5:53 AM63 °FClear.7 mph70%29.86 "Hg10 mi
4:53 AM64 °FClear.5 mph65%29.86 "Hg10 mi
3:53 AM64 °FClear.5 mph65%29.86 "Hg10 mi
2:53 AM66 °FClear.5 mph61%29.86 "Hg10 mi
1:53 AM67 °FClear.6 mph61%29.85 "Hg10 mi
12:53 AM68 °FClear.6 mph59%29.85 "Hg10 mi
11:53 PM
Tue, Sep 1
69 °FClear.10 mph55%29.85 "Hg10 mi
10:53 PM72 °FClear.9 mph49%29.84 "Hg10 mi
9:53 PM75 °FClear.12 mph45%29.84 "Hg10 mi
8:53 PM79 °FClear.20 mph41%29.82 "Hg10 mi
Weather by CustomWeather, © 2015

See weather overviewHow to use our weather pages